User: anonymous
Location: Seagrave Observatory
(41.8500°N, 71.5833°W)
Time: 22:10:31
(UTC-04:00)
Language:

Iridium 21 - Orbit

View from above orbital plane
View from above orbital plane
View from above satellite
View from above satellite

Ground track
Ground track

The orbit data is extracted from the following two-line orbital elements,

1 25778U 99032B   14204.34612461  .00000198  00000-0  63726-4 0  8120
2 25778 086.3990 306.9665 0002097 106.2921 312.4387 14.34215191796203
Epoch (UTC): 23 July 2014 08:18:25
Eccentricity: 0.0002097
inclination: 86.3990°
perigee height: 776 km
apogee height: 779 km
right ascension of ascending node: 306.9665°
argument of perigee: 106.2921°
revolutions per day: 14.34215191
mean anomaly at epoch: 312.4387°
orbit number at epoch: 79620

The dashed part of the orbit path shows where the satellite is in the earth's shadow,  

DLR